Pian Rosa, Italy

4:12 PM CEST on June 24, 2017 (GMT +0200)
Pian Rosa

Weather History for LIMH - October, 2012

Change the Weather History Date:

Wednesday, October 31, 2012

  Actual Average Record
Temperature  
Mean Temperature 17 °F -  
Max Temperature 20 °F 23 °F 39 °F (2006)
Min Temperature 14 °F 13 °F 8 °F (2008)
Degree Days  
Heating Degree Days 48    
Moisture  
Dew Point 8 °F    
Average Humidity 68    
Maximum Humidity 93    
Minimum Humidity 25    
Precipitation  
Precipitation 0.02 in - - ()
Sea Level Pressure  
Sea Level Pressure 29.55 in    
Wind  
Wind Speed 12 mph ()    
Max Wind Speed 23 mph    
Max Gust Speed -    
Visibility 1.7 miles    
Events Fog , Snow    
Averages and records for this station are not official NWS values.
T = Trace of Precipitation, MM = Missing Value Source: Averaged Metar Reports

Daily Weather History Graph

Daily Weather History Graph

Search for Another Location

Airport or City:

Trip Planner

Search our weather history database for the weather conditions in past years. The results will help you decide how hot, cold, wet, or windy it might be!

Date:

Astronomy

Oct. 31, 2012 Rise Set
Actual Time 7:08 AM CET 5:16 PM CET
Civil Twilight 6:37 AM CET 5:47 PM CET
Nautical Twilight 6:02 AM CET 6:22 PM CET
Astronomical Twilight 5:27 AM CET 6:57 PM CET
Moon 6:10 PM CET (10/31) 8:40 AM CET (10/31)
Length of Visible Light 11h 10m
Length of Day
10h 07m
Full, 98% of the Moon is Illuminated
Oct 31
Full
Nov 7
Last Quarter
Nov 13
New
Nov 20
First Quarter
Nov 28
Full

Hourly Weather History & Observations

Time (CET) Temp. Windchill Dew Point Humidity Pressure Visibility Wind Dir Wind Speed Gust Speed Precip Events Conditions
12:55 AM 15.8 °F 2.7 °F 1.4 °F 53% 29.71 in - South 11.5 mph - N/A   Clear
1:00 AM 16 °F - 2 °F 39%  in 6 mi South 11.5 mph - -   Partly Cloudy
1:55 AM 15.8 °F -0.6 °F -0.4 °F 49% 29.68 in - South 18.4 mph - N/A   Clear
2:55 AM 15.8 °F -2.3 °F -2.2 °F 45% 29.68 in 6.2 mi South 23.0 mph - N/A   Partly Cloudy
3:55 AM 15.8 °F 2.7 °F -0.4 °F 49% 29.65 in 6.2 mi South 11.5 mph - N/A   Partly Cloudy
4:00 AM 16 °F - -1 °F 32%  in 6 mi South 11.5 mph - -   Scattered Clouds
4:55 AM 17.6 °F 4.3 °F -2.2 °F 42% 29.65 in 6.2 mi SSE 12.7 mph - N/A   Partly Cloudy
5:55 AM 17.6 °F 3.7 °F -2.2 °F 42% 29.59 in 6.2 mi SSE 13.8 mph - N/A   Partly Cloudy
6:55 AM 15.8 °F 0.9 °F -4.0 °F 41% 29.59 in - South 15.0 mph - N/A   Clear
7:00 AM 16 °F - -4 °F 25%  in 9 mi South 15.0 mph - -   Clear
7:55 AM 15.8 °F -2.3 °F -4.0 °F 41% 29.59 in - SSE 23.0 mph - N/A   Clear
8:55 AM 14.0 °F 0.5 °F 3.2 °F 62% 29.62 in 0.5 mi South 11.5 mph - N/A Fog Light Freezing Fog
9:55 AM 14.0 °F -0.8 °F 10.4 °F 86% 29.62 in 0.2 mi South 13.8 mph - N/A Fog , Snow Light Snow
10:00 AM 14 °F - 10 °F 74%  in 0 mi South 13.8 mph - - Snow Light Snow
10:55 AM 14.0 °F 2.9 °F 12.2 °F 93% 29.62 in 0.1 mi South 8.1 mph - N/A Fog , Snow Light Snow
11:55 AM 15.8 °F 2.7 °F 12.2 °F 86% 29.62 in 0.2 mi South 11.5 mph - N/A Fog , Snow Light Snow
12:55 PM 15.8 °F 5.1 °F 12.2 °F 86% 29.59 in 0.5 mi SSE 8.1 mph - N/A Fog , Snow Light Snow
1:00 PM 17 °F - 12 °F 72%  in 0 mi SSE 8.1 mph - - Snow Light Snow
1:55 PM 17.6 °F 5.0 °F 10.4 °F 73% 29.56 in 0.5 mi ESE 11.5 mph - N/A Fog Light Freezing Fog
2:55 PM 19.4 °F 8.6 °F 15.8 °F 86% 29.53 in 0.1 mi SE 9.2 mph - N/A Fog , Snow Light Snow
3:55 PM 17.6 °F 9.3 °F 12.2 °F 79% 29.53 in 0.1 mi ESE 5.8 mph - N/A Fog Light Freezing Fog
4:00 PM 17 °F - 12 °F 72%  in 0 mi ESE 5.8 mph - - Snow Light Snow
4:55 PM 17.6 °F 5.0 °F 14.0 °F 86% 29.50 in 0.1 mi ESE 11.5 mph - N/A Fog , Snow Light Snow
5:55 PM 17.6 °F 5.0 °F 12.2 °F 79% 29.47 in 0.1 mi East 11.5 mph - N/A Fog , Snow Light Snow
6:55 PM 17.6 °F 3.7 °F 12.2 °F 79% 29.44 in 0.1 mi East 13.8 mph - N/A Fog , Snow Light Snow
7:00 PM 17 °F - 12 °F 73%  in 0 mi East 13.8 mph - - Snow Light Snow
7:55 PM 17.6 °F 2.2 °F 12.2 °F 79% 29.44 in 0.1 mi East 17.3 mph - N/A Fog , Snow Light Snow
8:55 PM 17.6 °F 2.7 °F 14.0 °F 86% 29.42 in 0.1 mi East 16.1 mph - N/A Fog , Snow Light Snow
9:55 PM 19.4 °F 4.5 °F 15.8 °F 86% 29.42 in 0.1 mi East 17.3 mph - N/A Fog , Snow Light Snow
10:00 PM 19 °F - 16 °F 83%  in 0 mi East 17.3 mph - - Snow Light Snow
10:55 PM 19.4 °F 5.0 °F 17.6 °F 93% 29.39 in 0.1 mi ESE 16.1 mph - N/A Fog , Snow Light Snow
11:55 PM 19.4 °F 10.4 °F 17.6 °F 93% 29.36 in 0.1 mi SSE 6.9 mph - N/A Fog , Snow Light Snow